ALOS-2

Last updated on Wed Jul 02 2025 00:02:14 GMT+0000 (Coordinated Universal Time)

1 39766U 14029A 25182.53047008 .00001163 00000+0 16256-3 0 9995 2 39766 97.9226 279.7270 0001627 98.9439 261.1956 14.79471983599736
UTC large
Height (km)
Speed (km/s)
/
Latitude / Longitude
Inclination (degrees)
Orbital Period (minutes)
Azimuth
Elevation
Range (km)
Doppler Factor

Next 0 passes for location: London (51.5072 / 0.1276)

Sorry there are no passes over London.